Ogden Hill AFB, UT

9:26 AM MST on January 22, 2018 (GMT -0700)
Hill Air Force Base

Weather History for KHIF - October, 2012

Change the Weather History Date:

Friday, October 19, 2012

  Actual Average Record
Temperature  
Mean Temperature 53 °F -  
Max Temperature 65 °F 57 °F 75 °F (2003)
Min Temperature 41 °F 38 °F 33 °F (1996)
Degree Days  
Heating Degree Days 12    
Growing Degree Days 3 (Base 50)    
Moisture  
Dew Point 23 °F    
Average Humidity 33    
Maximum Humidity 45    
Minimum Humidity 21    
Precipitation  
Precipitation 0.00 in - - ()
Sea Level Pressure  
Sea Level Pressure 29.99 in    
Wind  
Wind Speed 11 mph (ESE)    
Max Wind Speed 17 mph    
Max Gust Speed -    
Visibility 10 miles    
Events      
Averages and records for this station are not official NWS values.
T = Trace of Precipitation, MM = Missing Value Source: NWS Daily Summary

Daily Weather History Graph

Daily Weather History Graph

Search for Another Location

Airport or City:

Trip Planner

Search our weather history database for the weather conditions in past years. The results will help you decide how hot, cold, wet, or windy it might be!

Date:

Astronomy

Oct. 19, 2012 Rise Set
Actual Time 7:44 AM MDT 6:40 PM MDT
Civil Twilight 7:16 AM MDT 7:08 PM MDT
Nautical Twilight 6:44 AM MDT 7:40 PM MDT
Astronomical Twilight 6:12 AM MDT 8:12 PM MDT
Moon 12:32 PM MDT (10/19) 10:20 PM MDT (10/19)
Length of Visible Light 11h 51m
Length of Day
10h 55m
Waxing Crescent, 24% of the Moon is Illuminated
Oct 19
Waxing Crescent
Oct 21
First Quarter
Oct 29
Full
Nov 6
Last Quarter
Nov 13
New

Hourly Weather History & Observations

Time (MDT) Temp. Windchill Dew Point Humidity Pressure Visibility Wind Dir Wind Speed Gust Speed Precip Events Conditions
12:55 AM 44.8 °F 39.4 °F 21.0 °F 39% 30.15 in 10.0 mi ESE 10.4 mph - N/A   Clear
1:55 AM 43.9 °F 36.8 °F 20.7 °F 40% 30.13 in 10.0 mi ESE 15.0 mph - N/A   Clear
2:55 AM 44.8 °F 37.4 °F 20.7 °F 38% 30.09 in 10.0 mi ESE 17.3 mph - N/A   Clear
3:55 AM 44.1 °F 37.1 °F 20.8 °F 40% 30.08 in 10.0 mi ESE 15.0 mph - N/A   Clear
4:55 AM 42.6 °F 35.9 °F 21.0 °F 42% 30.09 in 10.0 mi ESE 12.7 mph - N/A   Clear
5:55 AM 42.6 °F 34.9 °F 20.8 °F 42% 30.08 in 10.0 mi ESE 16.1 mph - N/A   Clear
6:55 AM 42.6 °F 34.9 °F 21.2 °F 43% 30.09 in 10.0 mi ESE 16.1 mph - N/A   Clear
7:55 AM 41.7 °F 33.7 °F 21.6 °F 45% 30.08 in 10.0 mi ESE 16.1 mph - N/A   Clear
8:55 AM 42.8 °F 34.8 °F 21.9 °F 44% 30.10 in 10.0 mi ESE 17.3 mph - N/A   Scattered Clouds
9:55 AM 47.1 °F - 22.5 °F 38% 30.09 in 10.0 mi ESE 15.0 mph - N/A   Partly Cloudy
10:55 AM 53.4 °F - 23.4 °F 31% 30.08 in 10.0 mi East 9.2 mph - N/A   Partly Cloudy
11:55 AM 58.5 °F - 24.4 °F 27% 30.04 in 10.0 mi East 4.6 mph - N/A   Clear
12:55 PM 62.2 °F - 23.5 °F 23% 30.00 in 10.0 mi South 11.5 mph - N/A   Clear
1:55 PM 64.6 °F - 24.1 °F 21% 29.97 in 10.0 mi Variable 4.6 mph - N/A   Clear
2:55 PM 65.5 °F - 25.9 °F 22% 29.93 in 10.0 mi SSW 3.5 mph - N/A   Clear
3:55 PM 64.9 °F - 25.7 °F 23% 29.93 in 10.0 mi Calm Calm - N/A   Partly Cloudy
4:55 PM 64.4 °F - 26.2 °F 24% 29.91 in 9.0 mi Calm Calm - N/A   Clear
5:55 PM 64.8 °F - 25.9 °F 23% 29.89 in 10.0 mi Calm Calm - N/A   Scattered Clouds
6:55 PM 59.5 °F - 26.2 °F 28% 29.89 in 10.0 mi ESE 6.9 mph - N/A   Clear
7:55 PM 59.0 °F - 25.3 °F 28% 29.88 in 10.0 mi East 6.9 mph - N/A   Mostly Cloudy
8:55 PM 57.2 °F - 24.6 °F 29% 29.87 in 10.0 mi ESE 8.1 mph - N/A   Clear
9:55 PM 55.2 °F - 24.8 °F 31% 29.86 in 10.0 mi ESE 11.5 mph - N/A   Partly Cloudy
10:55 PM 56.5 °F - 25.0 °F 30% 29.79 in 10.0 mi ESE 10.4 mph - N/A   Mostly Cloudy
11:55 PM 57.0 °F - 25.7 °F 30% 29.77 in 10.0 mi ESE 6.9 mph - N/A   Overcast